Preview of NWS' New Version of Forecast
This preview is not operational and should not be used for support decisions.
Latest weather observations around

Haleyville, Posey Field Airport (K1M4)

Using International System of Units (Switch to English Units)
Date/ Time (CDT) Wind (kph) Vis. (km) Weather Sky Cond. Temp (°C) Rel. Humidity Wind Chill (°C) Heat Index (°C) Pressure Precip. (cm)
Air Dwpt 6 hour Altimeter (hPa) Sea level (hPa) 1 hr 3 hr 6 hr
Max Min
Oct 15 17:18 N 13 16.09 Cloudy FEW011 OVC060 20 18     88%     1021.3        
Oct 15 16:56 NNW 17 16.09 Cloudy BKN011 OVC060 21 18     87%     1021.3 1022.7 0    
Oct 15 16:36 N 15 16.09 Cloudy BKN011 OVC055 21 18     83%     1021.3   0    
Oct 15 15:56 NNW 18 16.09 Cloudy FEW025 BKN050 OVC085 23 19     79%   24 1021 1022      
Oct 15 14:56 NW 8 16.09 Cloudy FEW036 BKN046 OVC070 24 19     74%   25 1020 1021      
Oct 15 13:56 NW 9 16.09 Cloudy SCT025 OVC060 26 19     69%   26 1020 1020.7      
Oct 15 12:56 W 8 16.09 Cloudy SCT022 OVC055 25 20     74%   25 1020.3 1021      
Oct 15 12:37 WSW 11 16.09 Cloudy BKN022 OVC030 25 20     74%   25 1020.7        
Oct 15 11:56 SSW 9 16.09 Mostly Cloudy FEW018 SCT033 BKN043 24 20     76%   25 1020.7 1021.3      
Oct 15 11:21 SW 11 16.09 Cloudy BKN016 BKN022 OVC048 24 20     78%   25 1020.7        
Oct 15 10:56 SSW 15 16.09 Cloudy BKN014 BKN026 OVC046 24 21     79%   25 1020.3 1021.1      
Oct 15 10:39 SW 11 16.09 Cloudy BKN014 BKN024 OVC044 24 21     83%   25 1020.7        
Oct 15 09:56 SW 15 16.09 Mostly Cloudy SCT014 BKN026 BKN040 23 20     82%   24 1021 1021.7      
Oct 15 09:43 SSW 9 16.09 Cloudy BKN014 BKN026 OVC038 23 20     83%   24 1021        
Oct 15 08:56 SSW 11 16.09 Cloudy OVC038 22 19     84%   23 1020.7 1021.5      
Oct 15 07:56 S 8 16.09 Clear CLR 19 18     90%     1020 1021.1      
Oct 15 06:56 S 5 16.09 Clear CLR 17 16     93%     1020 1021      
Oct 15 05:56 Calm 16.09 Clear   18 16     90%     1019.3 1020.3      
Oct 15 04:56 SSE 8 16.09 Clear CLR 18 16     87%     1018.6 1019.3      
Oct 15 03:56 S 5 16.09 Mostly Cloudy BKN035 19 17     87%     1018.3 1018.9      
Oct 15 02:56 S 11 16.09 Mostly Clear FEW030 20 17     81%     1018.3 1018.9      
Oct 15 01:56 S 13 16.09 Clear CLR 21 16     75%     1018.3 1018.9      
Oct 15 00:56 SSE 15 16.09 Clear CLR 21 17     78%     1018 1018.7      
Oct 14 23:56 SSE 9 16.09 Clear   21 17     76%     1018.3 1019.1      
Oct 14 22:56 S 11 16.09 Mostly Cloudy BKN110 22 16     70%   22 1018.6 1019.3      
Oct 14 21:56 SSE 8 16.09 Mostly Cloudy BKN110 22 16     68%   22 1018.3 1019.3      
Oct 14 20:56 SSE 8 16.09 Partly Cloudy SCT100 22 16     66%   22 1018 1019.2      
Oct 14 19:56 S 9 16.09 Mostly Cloudy BKN110 23 16     62%   23 1017.3 1018.5      
Oct 14 18:56 S 9 16.09 Clear CLR 23 16     66%   23 1016.6 1017.8      
Oct 14 17:56 S 11 16.09 Clear CLR 26 15     52%   26 1015.9 1017      
Oct 14 16:56 S 22 16.09 Clear CLR 28 14     43%   28 1015.6 1016.5      
Oct 14 15:56 S 15 16.09 Clear CLR 29 14     41%   29 1015.9 1016.6      
Oct 14 14:56 SSW 17 16.09 Clear CLR 27 17     54%   27 1015.9 1017      
Oct 14 13:56 SW 18 16.09 Mostly Clear FEW100 26 17     58%   26 1016.3 1017.3      
Oct 14 12:56 SSW 21 16.09 Mostly Cloudy BKN100 24 17     64%   25 1016.9 1018.1      
Oct 14 11:56 SSW 26 16.09 Mostly Clear FEW028 26 18     62%   26 1017.3 1018.5      
Oct 14 10:56 S 30 16.09 Mostly Clear FEW090 23 16     66%   23 1017.3 1018.6      
Oct 14 09:56 S 21 16.09 Partly Cloudy SCT095 21 15     68%     1017.3 1018.8      
Oct 14 08:56 S 13 16.09 Mostly Cloudy BKN090 18 14     81%     1017.6 1019.1      
Oct 14 07:56 S 13 16.09 Cloudy BKN090 OVC110 17 14     84%     1016.9 1018.8      
Oct 14 06:56 SSE 15 16.09 Cloudy OVC085 17 13     80%     1016.3 1017.9     0
Oct 14 05:56 S 18 16.09 Cloudy OVC090 17 13     80%     1015.6 1017.2      
Oct 14 04:56 SSE 13 16.09 Mostly Cloudy BKN100 16 13     83%     1015.6 1017.1      
Oct 14 03:56 S 13 16.09 Mostly Cloudy BKN080 BKN120 16 13     86%     1015.2 1016.7 0 0  
Oct 14 02:56 SE 5 16.09 Mostly Clear FEW120 15 13     87%     1015.2 1016.7 0    
Oct 14 01:56 ESE 9 16.09 Mostly Clear FEW110 15 12     83%     1015.2 1016.7      
Oct 14 00:56 E 5 16.09 Mostly Cloudy BKN100 14 13     93%     1015.2 1016.8     0
Oct 13 23:56 E 8 16.09 Cloudy OVC080 14 13     90%     1015.9 1017.7      
Oct 13 22:56 E 9 16.09 Cloudy BKN042 OVC110 14 13     90%     1016.3 1018.2 0    
Oct 13 21:56 NE 8 16.09 Light Rain BKN039 OVC050 14 13     93%     1017.3 1019.2 0 0  
Oct 13 20:56 Calm 16.09 Cloudy SCT048 OVC055 16 13     81%     1016.3 1017.9      
Oct 13 19:56 E 5 16.09 Cloudy BKN060 OVC075 14 13     93%     1015.9 1018      
Oct 13 18:56 Calm 16.09 Mostly Clear FEW038 16 13     83%     1015.2 1017.3      
Oct 13 17:56 Calm 16.09 Partly Cloudy SCT036 18 13     73%     1015.6 1017.3      
Oct 13 16:56 Calm 16.09 Partly Cloudy SCT036 21 12     57%     1015.2 1016.8      
Oct 13 15:56 Calm 16.09 Mostly Cloudy BKN034 21 12     59%     1015.2 1016.6      
Oct 13 14:56 9 16.09 Cloudy OVC034 21 12     59%     1015.9 1017.3      
Oct 13 13:56 Calm 16.09 Mostly Cloudy BKN034 18 11     63%     1016.3 1017.7      
Oct 13 13:22 E 5 16.09 Mostly Cloudy BKN030 18 11     64%     1016.9        
Oct 13 12:56 Calm 16.09 Mostly Cloudy BKN028 19 11     61%     1017.3 1018.8      
Oct 13 12:37 8 16.09 Mostly Cloudy BKN028 19 12     64%     1016.9        
Oct 13 11:56 NNE 9 16.09 Mostly Cloudy SCT026 BKN046 18 11     65%     1017.6 1019.2      
Oct 13 10:56 Calm 16.09 Mostly Clear FEW048 16 11     72%     1018 1019.9      
Oct 13 10:22 NE 11 16.09 Partly Cloudy SCT018 15 10     72%     1018        
Oct 13 09:56 8 16.09 Cloudy BKN018 OVC050 16 11     72%     1018 1019.6      
Oct 13 09:43 8 16.09 Cloudy BKN016 OVC050 15 11     77%     1018        
Oct 13 09:24 NE 9 16.09 Cloudy BKN014 OVC050 16 11     72%     1018        
Oct 13 08:56 NNE 11 16.09 Cloudy OVC050 14 11     78%     1017.6 1019.5      
Oct 13 04:56 NNE 5 16.09 Cloudy OVC060 13 9     77%     1015.6 1017.2      
Oct 12 21:56 Calm 16.09 Cloudy OVC085 16 11     75%     1015.2        
Oct 12 18:56 Calm 16.09 Clear CLR 17 9     58%     1014.9        
Oct 12 16:56 5 16.09 Clear CLR 21 7     39%     1014.2 1016      
Oct 12 10:56 9 16.09 Clear CLR 16 6     52%     1018 1019.9      
Oct 12 07:56 NNE 9 16.09 Clear CLR 9 6     80% 8   1017.6 1019.9      
Oct 12 06:56 NNE 9 16.09 Clear CLR 8 6     86% 7   1017.3 1019.7      
Oct 12 00:56 N 5 16.09 Clear CLR 11 9     89%     1018.3 1020.1      
Oct 11 16:56 NNW 21 16.09 Clear CLR 19 10     55%     1015.2 1016.4      
Oct 11 10:56 NNW 18 16.09 Mostly Clear FEW023 18 13     70%     1015.6 1016.5      
Oct 11 09:56 NNW 18 16.09 Mostly Clear FEW014 17 13     75%     1014.9 1016.1      
Oct 11 09:52 NNW 18 16.09 Partly Cloudy SCT014 17 13     77%     1014.9        
Oct 11 07:56 NW 15 16.09 Cloudy OVC018 17 14     86%     1013.2 1014.2      
Oct 11 06:31 NW 15 16.09 Cloudy OVC016 17 16     94%     1012.5        
Oct 11 04:56 NNW 17 16.09 Cloudy OVC010 18 17     90%     1010.8 1011.7      
Oct 11 04:20 NNW 15 16.09 Mostly Cloudy BKN010 18 17     94%     1010.5        
Oct 11 03:56 NNW 13 16.09 Mostly Clear FEW010 19 18     93%     1010.2 1010.7      
Oct 11 00:28 NNW 15 16.09 Cloudy FEW010 SCT024 OVC035 22 21     94%   23 1009.5   0    
Oct 10 23:24 NNW 17 14.48 Light Rain SCT008 BKN021 OVC049 22 21     94%   23 1009.5   0    
Oct 10 22:37 NW 8 16.09 Light Rain SCT006 BKN028 BKN055 22 21     94%   23 1009.5   0    
Notice The following observation data may not be complete
Oct 10 22:22   16.09 Light Rain FEW015 SCT030 BKN080          %         0    
Oct 10 22:08 NW 8 16.09 Light Rain SCT015 BKN025 OVC033 22 21     94%   23 1009.2   0    
Oct 10 16:56 Calm 16.09 Mostly Cloudy BKN110 26 22     79%   26 1008.1 1008.6      
Oct 10 12:56   16.09 Cloudy BKN014 BKN090 OVC110 26 22     82%   26 1010.8 1011.2      
Oct 10 11:56 SE 13 16.09 Cloudy FEW016 OVC065 26 22     82%   26 1011.2        
Oct 10 11:38 SSE 11 16.09 Cloudy SCT016 OVC065 25 22     83%   26 1011.2        
Oct 10 09:56 9 16.09 Cloudy BKN010 OVC110 24 22     88%   25 1011.9 1012.5      
Oct 10 09:53 ESE 11 16.09 Cloudy BKN010 OVC110 24 22     89%   25 1011.9        
Oct 10 04:56 SE 8 16.09 Cloudy OVC008 22 21     96%   22 1011.9 1012.3      
Oct 10 00:21 ESE 11 16.09 Cloudy BKN026 OVC033 23 21     89%   24 1012.9        
Oct 09 01:56 9 16.09 Clear CLR 22 19     84%   23 1019 1019.5      
Oct 08 22:56 E 5 16.09 Clear CLR 23 19     79%   23 1019.3 1019.6      
Oct 08 11:56 SE 11 16.09 Mostly Cloudy BKN030 27 21     67%   29 1021.3 1022.2      
Oct 08 10:56 SSE 13 16.09 Clear   28 21     65%   30 1022 1022.6      
Oct 08 08:56 SE 13 16.09 Clear CLR 24 20     79%   24 1021.7 1022.5      
Oct 08 04:56 ESE 8 16.09 Clear CLR 21 18     84%     1020.7 1021      
Oct 08 03:56 Calm 14.48 Clear CLR 18 17     96%     1020.3 1021      
Oct 07 18:56 Calm 16.09 Clear CLR 25 18     66%   25 1020 1020.7      
Oct 07 14:56 SE 15 6.44 Haze SCT050 31 20     52%   33 1020 1020.5      
Oct 07 13:56 SE 13 11.27 Mostly Clear FEW045 31 20     53%   33 1020.3        
Oct 07 12:56 ESE 11 4.83 Haze SCT047 SCT060 31 21     54%   34 1021.7 1021.9      
Oct 07 11:56 11 12.87 Mostly Cloudy SCT037 BKN047 30 21     59%   33 1022.4        
Oct 07 10:56 9 16.09 Clear CLR 29 21     63%   31 1022.7 1023.3      
Oct 07 08:56 Calm 16.09 Clear CLR 26 21     76%   26 1022.7 1023.4      
Oct 07 06:56 Calm 8.05 Fog/Mist CLR 18 18     100%     1021.7 1022.7      
Oct 07 04:56 Calm 8.05 Clear   18 18     100%     1020.7 1021.3      
Oct 06 23:56 Calm 11.27 Clear CLR 20 19     96%     1020.7 1021      
Oct 06 18:56 Calm 16.09 Mostly Clear FEW055 24 21     84%   25 1019.7 1020.5      
Oct 06 14:56 SSW 11 16.09 Clear CLR 31 19     51%   32 1019.7 1020.2      
Oct 06 13:56 WSW 5 16.09 Mostly Cloudy SCT050 BKN060 29 19     55%   30 1020.3        
Oct 06 12:56 SW 9 16.09 Mostly Cloudy SCT049 BKN055 29 19     57%   30 1021 1021.6      
Oct 06 11:56 WSW 13 16.09 Mostly Clear FEW050 30 19     53%   32 1021.7        
Oct 06 07:03 Calm 3.22 Fog/Mist CLR 19 18     94%     1020.7        
Oct 06 06:56 Calm 1.61 Fog/Mist CLR 18 18     100%     1020.7 1021.6      
Oct 06 06:50 Calm 2.41 Fog/Mist CLR 19 18     94%     1020.7        
Oct 06 05:56 Calm 4.02 Fog/Mist CLR 19 19     100%     1020 1020.7      
Oct 06 05:42 Calm 2.82 Fog/Mist CLR 19 19     100%     1020        
Oct 06 02:56 Calm 9.66 Fog/Mist CLR 20 19     96%     1019 1019.3      
Oct 05 22:56 Calm 8.05 Fog/Mist CLR 22 21     96%   22 1019.7 1020.1      
Oct 05 21:56 Calm 16.09 Clear CLR 22 21     93%   23 1019.7 1020.2      
Oct 05 19:56 Calm 16.09 Clear CLR 23 22     91%   24 1019.3 1020.2      
Oct 05 13:56 SSW 13 16.09 Partly Cloudy FEW042 SCT060 31 21     55%   34 1019.3 1019.6      
Oct 05 12:56 S 8 16.09 Clear CLR 29 21     59%   32 1020 1020.6      
Oct 05 11:56 8 16.09 Mostly Cloudy SCT037 BKN049 30 21     59%   33 1021 1021.2      
Oct 05 07:56 Calm 16.09 Clear CLR 21 20     96%     1021.3 1022.4      
Oct 05 06:56 Calm 12.87 Clear CLR 19 18     96%     1021 1021.9      
Oct 05 05:56 Calm 8.05 Fog/Mist CLR 19 18     96%     1020.7 1021.2      
Oct 05 04:56 Calm 8.05 Fog/Mist CLR 19 19     100%     1020 1020.5      
Oct 05 03:56 Calm 12.87 Clear CLR 19 19     97%     1020 1020.2      
Oct 05 02:56 Calm 6.44 Fog/Mist CLR 19 19     97%     1019.7 1020      
Oct 05 01:56 Calm 11.27 Clear CLR 20 19     96%     1019.7 1020.1      
Oct 05 00:56 Calm 8.05 Fog/Mist CLR 20 20     100%     1019.7 1019.9      
Oct 04 23:56 Calm 12.87 Clear CLR 21 20     96%     1020 1020.5      
Oct 04 22:56 Calm 12.87 Clear CLR 21 21     97%     1020.3 1020.7      
Oct 04 21:56 Calm 14.48 Clear CLR 22 21     96%   22 1020 1020.6      
Oct 04 20:56 Calm 16.09 Clear CLR 22 21     96%   22 1019.7 1020.5      
Oct 04 19:56 Calm 16.09 Clear CLR 23 21     90%   23 1019.3 1020.3      
Oct 04 18:56 Calm 16.09 Clear CLR 24 22     85%   25 1019 1020      
Oct 04 17:56 Calm 16.09 Clear CLR 28 22     72%   30 1019 1019.7      
Oct 04 16:56 S 5 16.09 Clear CLR 31 19     51%   32 1019 1019.4      
Oct 04 15:56 S 11 16.09 Clear CLR 31 20     52%   33 1019.3 1019.8      
Oct 04 14:56 SW 9 16.09 Cloudy SCT044 BKN055 OVC090 32 21     53%   35 1020 1020.3      
Oct 04 13:56 Calm 16.09 Partly Cloudy FEW043 SCT060 29 21     61%   32 1020.7 1021      
Oct 04 12:56 5 16.09 Clear CLR 31 20     53%   33 1021.3 1021.6      
Oct 04 11:56 SW 11 16.09 Mostly Clear FEW032 29 21     61%   32 1022 1022.6      
Oct 04 10:56 SW 13 16.09 Mostly Clear FEW028 28 22     69%   30 1022.7 1023.1      
Oct 04 09:56 W 9 16.09 Clear CLR 27 21     69%   29 1022.7 1023.4      
Oct 04 08:56 WSW 5 16.09 Clear CLR 25 21     79%   26 1022.7 1023.4      
Oct 04 07:56 Calm 16.09 Clear CLR 21 20     93%     1022.4 1023.1      
Oct 04 06:56 Calm 8.05 Fog/Mist CLR 18 18     100%     1021.3 1022.5      
Oct 04 05:56 Calm 11.27 Clear CLR 19 18     96%     1020.7 1021.4      
Oct 04 04:56 Calm 16.09 Clear CLR 19 19     97%     1020.3 1020.9      
Oct 04 03:56 Calm 16.09 Clear CLR 19 19     97%     1020 1020.4      
Sep 25 09:10 S 13 4.83 Fog/Mist OVC003 22 22     100%   23 1020.3   0    
May 14 07:56 Calm 16.09 Clear CLR 23 20     84%   23 1019.7        
May 14 05:56 Calm 1.61 Fog/Mist CLR 16 16     100%     1018.6        
May 12 15:56 SSW 17 16.09 Clear   31 13     35%   30 1020.3 1020.8      
May 11 23:56 S 8 16.09 Clear CLR 21 15     68%     1019.7 1020      
Jun 12 02:56 S 8 16.09 Clear CLR 22 21     91%   23 1020.7 1021      
Jun 11 11:56 SSW 17 16.09 Partly Cloudy SCT075 29 21     61%   32 1022 1022.4      
Jun 10 23:56 ESE 5 16.09 Clear CLR 19 17     90%       1020.7      
Jun 10 12:56 9 16.09 Partly Cloudy SCT055 28 16     46%   28 1019.7 1020.5      
Jun 09 04:56 Calm 12.87 Clear CLR 12 12     97%     1014.6 1015.8      
Jun 08 23:56 N 5 16.09 Clear CLR 16 13     86%     1014.9 1016.2      
Jun 06 12:56 Calm 16.09 Mostly Cloudy BKN085 BKN110 22 21     93%   22 1010.8 1011.6 0   1
Jun 06 00:48 Calm 4.83 Fog/Mist FEW120 21 21     100%     1010.8   0    
Jun 05 22:37 S 8 16.09 Mostly Cloudy BKN005 22 21     94%   23 1010.8        
Notice The following observation data may not be complete
Jun 05 20:09   16.09 Partly Cloudy FEW015 SCT025          %